Volver al catálogo

TEVEL2-4

ActivoRadioaficionadoSSO
NORAD 63213·PAYLOAD·🇮🇱 Israel

Lanzado Mar 15, 2025 desde Vandenberg Space Force Base

Loading…

Próximos Pases (próximas 24 horas)

TLE

ActualizadoSource: AMSAT

Época: Sep 14, 2026, 04:00 UTC

1 63213U 25052D   26257.16710487  .00014626  00000-0  39934-3 0  9995
2 63213  97.3762 153.8308 0004121 120.1634 240.0020 15.37512722 83772

Sigue TEVEL2-4 en tiempo real con AllMySat

Download on the App Store